#Datum;Uhrzeit;WR;Pac;DaySum;Status;WR;Pac;DaySum;Status;Pdc1;Udc;Temp;WR;Pac;DaySum;Status;Pdc1;Udc;Temp;WR;Pac;DaySum;Status;Pdc1;Udc;Temp;WR;Pac;DaySum;Status;Pdc1;Pdc2;Udc1;Udc2;Temp;WR;Pac;DaySum;Status;Pdc1;Pdc2;Udc1;Udc2;Temp;WR;Pac;DaySum;Status;Pdc1;Udc;Temp;WR;Pac;DaySum;Status;Pdc1;Udc;Temp;WR;Pac;DaySum;Status;Pdc1;Udc;Temp
14.11.17;23:55:00;1;506;10571;0;2;0;2258;0;0;0;0;3;0;1343;0;0;0;0;4;0;1811;0;0;0;0;5;0;4819;0;0;0;0;0;0;6;0;3613;0;0;0;0;0;0;7;0;2167;0;0;0;0;8;0;2191;0;0;0;0;9;0;1126;0;0;0;0
14.11.17;23:50:00;1;488;10529;0;2;0;2258;0;0;0;0;3;0;1343;0;0;0;0;4;0;1811;0;0;0;0;5;0;4819;0;0;0;0;0;0;6;0;3613;0;0;0;0;0;0;7;0;2167;0;0;0;0;8;0;2191;0;0;0;0;9;0;1126;0;0;0;0
14.11.17;23:45:00;1;464;10488;0;2;0;2258;0;0;0;0;3;0;1343;0;0;0;0;4;0;1811;0;0;0;0;5;0;4819;0;0;0;0;0;0;6;0;3613;0;0;0;0;0;0;7;0;2167;0;0;0;0;8;0;2191;0;0;0;0;9;0;1126;0;0;0;0
14.11.17;23:40:00;1;467;10449;0;2;0;2258;0;0;0;0;3;0;1343;0;0;0;0;4;0;1811;0;0;0;0;5;0;4819;0;0;0;0;0;0;6;0;3613;0;0;0;0;0;0;7;0;2167;0;0;0;0;8;0;2191;0;0;0;0;9;0;1126;0;0;0;0
14.11.17;23:35:00;1;467;10410;0;2;0;2258;0;0;0;0;3;0;1343;0;0;0;0;4;0;1811;0;0;0;0;5;0;4819;0;0;0;0;0;0;6;0;3613;0;0;0;0;0;0;7;0;2167;0;0;0;0;8;0;2191;0;0;0;0;9;0;1126;0;0;0;0
14.11.17;23:30:00;1;471;10371;0;2;0;2258;0;0;0;0;3;0;1343;0;0;0;0;4;0;1811;0;0;0;0;5;0;4819;0;0;0;0;0;0;6;0;3613;0;0;0;0;0;0;7;0;2167;0;0;0;0;8;0;2191;0;0;0;0;9;0;1126;0;0;0;0
14.11.17;23:25:00;1;1077;10332;0;2;0;2258;0;0;0;0;3;0;1343;0;0;0;0;4;0;1811;0;0;0;0;5;0;4819;0;0;0;0;0;0;6;0;3613;0;0;0;0;0;0;7;0;2167;0;0;0;0;8;0;2191;0;0;0;0;9;0;1126;0;0;0;0
14.11.17;23:20:00;1;408;10270;0;2;0;2258;0;0;0;0;3;0;1343;0;0;0;0;4;0;1811;0;0;0;0;5;0;4819;0;0;0;0;0;0;6;0;3613;0;0;0;0;0;0;7;0;2167;0;0;0;0;8;0;2191;0;0;0;0;9;0;1126;0;0;0;0
14.11.17;23:15:00;1;409;10236;0;2;0;2258;0;0;0;0;3;0;1343;0;0;0;0;4;0;1811;0;0;0;0;5;0;4819;0;0;0;0;0;0;6;0;3613;0;0;0;0;0;0;7;0;2167;0;0;0;0;8;0;2191;0;0;0;0;9;0;1126;0;0;0;0
14.11.17;23:10:00;1;435;10202;0;2;0;2258;0;0;0;0;3;0;1343;0;0;0;0;4;0;1811;0;0;0;0;5;0;4819;0;0;0;0;0;0;6;0;3613;0;0;0;0;0;0;7;0;2167;0;0;0;0;8;0;2191;0;0;0;0;9;0;1126;0;0;0;0
14.11.17;23:05:00;1;453;10166;0;2;0;2258;0;0;0;0;3;0;1343;0;0;0;0;4;0;1811;0;0;0;0;5;0;4819;0;0;0;0;0;0;6;0;3613;0;0;0;0;0;0;7;0;2167;0;0;0;0;8;0;2191;0;0;0;0;9;0;1126;0;0;0;0
14.11.17;23:00:00;1;453;10128;0;2;0;2258;0;0;0;0;3;0;1343;0;0;0;0;4;0;1811;0;0;0;0;5;0;4819;0;0;0;0;0;0;6;0;3613;0;0;0;0;0;0;7;0;2167;0;0;0;0;8;0;2191;0;0;0;0;9;0;1126;0;0;0;0
14.11.17;22:55:00;1;418;10090;0;2;0;2258;0;0;0;0;3;0;1343;0;0;0;0;4;0;1811;0;0;0;0;5;0;4819;2;0;0;0;0;0;6;0;3613;2;0;0;0;0;0;7;0;2167;0;0;0;0;8;0;2191;0;0;0;0;9;0;1126;0;0;0;0
14.11.17;22:50:00;1;410;10054;0;2;0;2258;0;0;0;0;3;0;1343;0;0;0;0;4;0;1811;0;0;0;0;5;0;4819;2;0;0;0;0;0;6;0;3613;2;0;0;0;0;0;7;0;2167;0;0;0;0;8;0;2191;0;0;0;0;9;0;1126;0;0;0;0
14.11.17;22:45:00;1;412;10020;0;2;0;2258;0;0;0;0;3;0;1343;0;0;0;0;4;0;1811;0;0;0;0;5;0;4819;2;0;0;0;0;0;6;0;3613;2;0;0;0;0;0;7;0;2167;0;0;0;0;8;0;2191;0;0;0;0;9;0;1126;0;0;0;0
14.11.17;22:40:00;1;420;9986;0;2;0;2258;0;0;0;0;3;0;1343;0;0;0;0;4;0;1811;0;0;0;0;5;0;4819;2;0;0;0;0;0;6;0;3613;2;0;0;0;0;0;7;0;2167;0;0;0;0;8;0;2191;0;0;0;0;9;0;1126;0;0;0;0
14.11.17;22:35:00;1;420;9951;0;2;0;2258;0;0;0;0;3;0;1343;0;0;0;0;4;0;1811;0;0;0;0;5;0;4819;2;0;0;0;0;0;6;0;3613;2;0;0;0;0;0;7;0;2167;0;0;0;0;8;0;2191;0;0;0;0;9;0;1126;0;0;0;0
14.11.17;22:30:00;1;470;9916;0;2;0;2258;0;0;0;0;3;0;1343;0;0;0;0;4;0;1811;0;0;0;0;5;0;4819;2;0;0;0;0;0;6;0;3613;2;0;0;0;0;0;7;0;2167;0;0;0;0;8;0;2191;0;0;0;0;9;0;1126;0;0;0;0
14.11.17;22:25:00;1;687;9876;0;2;0;2258;0;0;0;0;3;0;1343;0;0;0;0;4;0;1811;0;0;0;0;5;0;4819;2;0;0;0;0;0;6;0;3613;2;0;0;0;0;0;7;0;2167;0;0;0;0;8;0;2191;0;0;0;0;9;0;1126;0;0;0;0
14.11.17;22:20:00;1;720;9812;0;2;0;2258;0;0;0;0;3;0;1343;0;0;0;0;4;0;1811;0;0;0;0;5;0;4819;2;0;0;0;0;0;6;0;3613;2;0;0;0;0;0;7;0;2167;0;0;0;0;8;0;2191;0;0;0;0;9;0;1126;0;0;0;0
14.11.17;22:15:00;1;580;9753;0;2;0;2258;0;0;0;0;3;0;1343;0;0;0;0;4;0;1811;0;0;0;0;5;0;4819;2;0;0;0;0;0;6;0;3613;2;0;0;0;0;0;7;0;2167;0;0;0;0;8;0;2191;0;0;0;0;9;0;1126;0;0;0;0
14.11.17;22:10:00;1;644;9704;0;2;0;2258;0;0;0;0;3;0;1343;0;0;0;0;4;0;1811;0;0;0;0;5;0;4819;2;0;0;0;0;0;6;0;3613;2;0;0;0;0;0;7;0;2167;0;0;0;0;8;0;2191;0;0;0;0;9;0;1126;0;0;0;0
14.11.17;22:05:00;1;701;9650;0;2;0;2258;0;0;0;0;3;0;1343;0;0;0;0;4;0;1811;0;0;0;0;5;0;4819;2;0;0;0;0;0;6;0;3613;2;0;0;0;0;0;7;0;2167;0;0;0;0;8;0;2191;0;0;0;0;9;0;1126;0;0;0;0
14.11.17;22:00:00;1;669;9591;0;2;0;2258;0;0;0;0;3;0;1343;0;0;0;0;4;0;1811;0;0;0;0;5;0;4819;2;0;0;0;0;0;6;0;3613;2;0;0;0;0;0;7;0;2167;0;0;0;0;8;0;2191;0;0;0;0;9;0;1126;0;0;0;0
14.11.17;21:55:00;1;660;9535;0;2;0;2258;0;0;0;0;3;0;1343;0;0;0;0;4;0;1811;0;0;0;0;5;0;4819;2;0;0;0;0;0;6;0;3613;2;0;0;0;0;0;7;0;2167;0;0;0;0;8;0;2191;0;0;0;0;9;0;1126;0;0;0;0
14.11.17;21:50:00;1;682;9480;0;2;0;2258;0;0;0;0;3;0;1343;0;0;0;0;4;0;1811;0;0;0;0;5;0;4819;2;0;0;0;0;0;6;0;3613;2;0;0;0;0;0;7;0;2167;0;0;0;0;8;0;2191;0;0;0;0;9;0;1126;0;0;0;0
14.11.17;21:45:00;1;712;9423;0;2;0;2258;0;0;0;0;3;0;1343;0;0;0;0;4;0;1811;0;0;0;0;5;0;4819;2;0;0;0;0;0;6;0;3613;2;0;0;0;0;0;7;0;2167;0;0;0;0;8;0;2191;0;0;0;0;9;0;1126;0;0;0;0
14.11.17;21:40:00;1;1113;9331;0;2;0;2258;0;0;0;0;3;0;1343;0;0;0;0;4;0;1811;0;0;0;0;5;0;4819;2;0;0;0;0;0;6;0;3613;2;0;0;0;0;0;7;0;2167;0;0;0;0;8;0;2191;0;0;0;0;9;0;1126;0;0;0;0
14.11.17;21:35:00;1;738;9261;0;2;0;2258;0;0;0;0;3;0;1343;0;0;0;0;4;0;1811;0;0;0;0;5;0;4819;2;0;0;0;0;0;6;0;3613;2;0;0;0;0;0;7;0;2167;0;0;0;0;8;0;2191;0;0;0;0;9;0;1126;0;0;0;0
14.11.17;21:30:00;1;1488;9200;0;2;0;2258;0;0;0;0;3;0;1343;0;0;0;0;4;0;1811;0;0;0;0;5;0;4819;2;0;0;0;0;0;6;0;3613;2;0;0;0;0;0;7;0;2167;0;0;0;0;8;0;2191;0;0;0;0;9;0;1126;0;0;0;0
14.11.17;21:25:00;1;1199;9106;0;2;0;2258;0;0;0;0;3;0;1343;0;0;0;0;4;0;1811;0;0;0;0;5;0;4819;2;0;0;0;0;0;6;0;3613;2;0;0;0;0;0;7;0;2167;0;0;0;0;8;0;2191;0;0;0;0;9;0;1126;0;0;0;0
14.11.17;21:20:00;1;817;9013;0;2;0;2258;0;0;0;0;3;0;1343;0;0;0;0;4;0;1811;0;0;0;0;5;0;4819;2;0;0;0;0;0;6;0;3613;2;0;0;0;0;0;7;0;2167;0;0;0;0;8;0;2191;0;0;0;0;9;0;1126;0;0;0;0
14.11.17;21:15:00;1;823;8947;0;2;0;2258;0;0;0;0;3;0;1343;0;0;0;0;4;0;1811;0;0;0;0;5;0;4819;2;0;0;0;0;0;6;0;3613;2;0;0;0;0;0;7;0;2167;0;0;0;0;8;0;2191;0;0;0;0;9;0;1126;0;0;0;0
14.11.17;21:00:00;1;668;8749;0;2;0;2258;0;0;0;0;3;0;1343;0;0;0;0;4;0;1811;0;0;0;0;5;0;4819;2;0;0;0;0;0;6;0;3613;2;0;0;0;0;0;7;0;2167;0;0;0;0;8;0;2191;0;0;0;0;9;0;1126;0;0;0;0
14.11.17;20:55:00;1;691;8693;0;2;0;2258;0;0;0;0;3;0;1343;0;0;0;0;4;0;1811;0;0;0;0;5;0;4819;2;0;0;0;0;0;6;0;3613;2;0;0;0;0;0;7;0;2167;0;0;0;0;8;0;2191;0;0;0;0;9;0;1126;0;0;0;0
14.11.17;20:50:00;1;1310;8636;0;2;0;2258;0;0;0;0;3;0;1343;0;0;0;0;4;0;1811;0;0;0;0;5;0;4819;2;0;0;0;0;0;6;0;3613;2;0;0;0;0;0;7;0;2167;0;0;0;0;8;0;2191;0;0;0;0;9;0;1126;0;0;0;0
14.11.17;20:45:00;1;826;8547;0;2;0;2258;0;0;0;0;3;0;1343;0;0;0;0;4;0;1811;0;0;0;0;5;0;4819;2;0;0;0;0;0;6;0;3613;2;0;0;0;0;0;7;0;2167;0;0;0;0;8;0;2191;0;0;0;0;9;0;1126;0;0;0;0
14.11.17;20:40:00;1;826;8478;0;2;0;2258;0;0;0;0;3;0;1343;0;0;0;0;4;0;1811;0;0;0;0;5;0;4819;2;0;0;0;0;0;6;0;3613;2;0;0;0;0;0;7;0;2167;0;0;0;0;8;0;2191;0;0;0;0;9;0;1126;0;0;0;0
14.11.17;20:35:00;1;827;8409;0;2;0;2258;0;0;0;0;3;0;1343;0;0;0;0;4;0;1811;0;0;0;0;5;0;4819;2;0;0;0;0;0;6;0;3613;2;0;0;0;0;0;7;0;2167;0;0;0;0;8;0;2191;0;0;0;0;9;0;1126;0;0;0;0
14.11.17;20:30:00;1;644;8342;0;2;0;2258;0;0;0;0;3;0;1343;0;0;0;0;4;0;1811;0;0;0;0;5;0;4819;2;0;0;0;0;0;6;0;3613;2;0;0;0;0;0;7;0;2167;0;0;0;0;8;0;2191;0;0;0;0;9;0;1126;0;0;0;0
14.11.17;20:25:00;1;681;8287;0;2;0;2258;0;0;0;0;3;0;1343;0;0;0;0;4;0;1811;0;0;0;0;5;0;4819;2;0;0;0;0;0;6;0;3613;2;0;0;0;0;0;7;0;2167;0;0;0;0;8;0;2191;0;0;0;0;9;0;1126;0;0;0;0
14.11.17;20:20:00;1;738;8214;0;2;0;2258;0;0;0;0;3;0;1343;0;0;0;0;4;0;1811;0;0;0;0;5;0;4819;2;0;0;0;0;0;6;0;3613;2;0;0;0;0;0;7;0;2167;0;0;0;0;8;0;2191;0;0;0;0;9;0;1126;0;0;0;0
14.11.17;20:15:00;1;752;8152;0;2;0;2258;0;0;0;0;3;0;1343;0;0;0;0;4;0;1811;0;0;0;0;5;0;4819;2;0;0;0;0;0;6;0;3613;2;0;0;0;0;0;7;0;2167;0;0;0;0;8;0;2191;0;0;0;0;9;0;1126;0;0;0;0
14.11.17;20:10:00;1;803;8089;0;2;0;2258;0;0;0;0;3;0;1343;0;0;0;0;4;0;1811;0;0;0;0;5;0;4819;2;0;0;0;0;0;6;0;3613;2;0;0;0;0;0;7;0;2167;0;0;0;0;8;0;2191;0;0;0;0;9;0;1126;0;0;0;0
14.11.17;20:05:00;1;2705;8010;0;2;0;2258;0;0;0;0;3;0;1343;0;0;0;0;4;0;1811;0;0;0;0;5;0;4819;2;0;0;0;0;0;6;0;3613;2;0;0;0;0;0;7;0;2167;0;0;0;0;8;0;2191;0;0;0;0;9;0;1126;0;0;0;0
14.11.17;20:00:00;1;752;7819;0;2;0;2258;0;0;0;0;3;0;1343;0;0;0;0;4;0;1811;0;0;0;0;5;0;4819;2;0;0;0;0;0;6;0;3613;2;0;0;0;0;0;7;0;2167;0;0;0;0;8;0;2191;0;0;0;0;9;0;1126;0;0;0;0
14.11.17;19:55:00;1;704;7756;0;2;0;2258;0;0;0;0;3;0;1343;0;0;0;0;4;0;1811;0;0;0;0;5;0;4819;2;0;0;0;0;0;6;0;3613;2;0;0;0;0;0;7;0;2167;0;0;0;0;8;0;2191;0;0;0;0;9;0;1126;0;0;0;0
14.11.17;19:50:00;1;683;7697;0;2;0;2258;0;0;0;0;3;0;1343;0;0;0;0;4;0;1811;0;0;0;0;5;0;4819;2;0;0;0;0;0;6;0;3613;2;0;0;0;0;0;7;0;2167;0;0;0;0;8;0;2191;0;0;0;0;9;0;1126;0;0;0;0
14.11.17;19:45:00;1;678;7640;0;2;0;2258;0;0;0;0;3;0;1343;0;0;0;0;4;0;1811;0;0;0;0;5;0;4819;2;0;0;0;0;0;6;0;3613;2;0;0;0;0;0;7;0;2167;0;0;0;0;8;0;2191;0;0;0;0;9;0;1126;0;0;0;0
14.11.17;19:40:00;1;1355;7584;0;2;0;2258;0;0;0;0;3;0;1343;0;0;0;0;4;0;1811;0;0;0;0;5;0;4819;2;0;0;0;0;0;6;0;3613;2;0;0;0;0;0;7;0;2167;0;0;0;0;8;0;2191;0;0;0;0;9;0;1126;0;0;0;0
14.11.17;19:35:00;1;643;7499;0;2;0;2258;0;0;0;0;3;0;1343;0;0;0;0;4;0;1811;0;0;0;0;5;0;4819;2;0;0;0;0;0;6;0;3613;2;0;0;0;0;0;7;0;2167;0;0;0;0;8;0;2191;0;0;0;0;9;0;1126;0;0;0;0
14.11.17;19:30:00;1;639;7447;0;2;0;2258;0;0;0;0;3;0;1343;0;0;0;0;4;0;1811;0;0;0;0;5;0;4819;2;0;0;0;0;0;6;0;3613;2;0;0;0;0;0;7;0;2167;0;0;0;0;8;0;2191;0;0;0;0;9;0;1126;0;0;0;0
14.11.17;19:25:00;1;2625;7374;0;2;0;2258;0;0;0;0;3;0;1343;0;0;0;0;4;0;1811;0;0;0;0;5;0;4819;2;0;0;0;0;0;6;0;3613;2;0;0;0;0;0;7;0;2167;0;0;0;0;8;0;2191;0;0;0;0;9;0;1126;0;0;0;0
14.11.17;19:20:00;1;655;7200;0;2;0;2258;0;0;0;0;3;0;1343;0;0;0;0;4;0;1811;0;0;0;0;5;0;4819;2;0;0;0;0;0;6;0;3613;2;0;0;0;0;0;7;0;2167;0;0;0;0;8;0;2191;0;0;0;0;9;0;1126;0;0;0;0
14.11.17;19:15:00;1;611;7146;0;2;0;2258;0;0;0;0;3;0;1343;0;0;0;0;4;0;1811;0;0;0;0;5;0;4819;2;0;0;0;0;0;6;0;3613;2;0;0;0;0;0;7;0;2167;0;0;0;0;8;0;2191;0;0;0;0;9;0;1126;0;0;0;0
14.11.17;19:10:00;1;627;7095;0;2;0;2258;0;0;0;0;3;0;1343;0;0;0;0;4;0;1811;0;0;0;0;5;0;4819;2;0;0;0;0;0;6;0;3613;2;0;0;0;0;0;7;0;2167;0;0;0;0;8;0;2191;0;0;0;0;9;0;1126;0;0;0;0
14.11.17;19:05:00;1;648;7039;0;2;0;2258;0;0;0;0;3;0;1343;0;0;0;0;4;0;1811;0;0;0;0;5;0;4819;2;0;0;0;0;0;6;0;3613;2;0;0;0;0;0;7;0;2167;0;0;0;0;8;0;2191;0;0;0;0;9;0;1126;0;0;0;0
14.11.17;19:00:00;1;744;6970;0;2;0;2258;0;0;0;0;3;0;1343;0;0;0;0;4;0;1811;0;0;0;0;5;0;4819;2;0;0;0;0;0;6;0;3613;2;0;0;0;0;0;7;0;2167;0;0;0;0;8;0;2191;0;0;0;0;9;0;1126;0;0;0;0
14.11.17;18:55:00;1;1032;6910;0;2;0;2258;0;0;0;0;3;0;1343;0;0;0;0;4;0;1811;0;0;0;0;5;0;4819;2;0;0;0;0;0;6;0;3613;2;0;0;0;0;0;7;0;2167;0;0;0;0;8;0;2191;0;0;0;0;9;0;1126;0;0;0;0
14.11.17;18:50:00;1;2575;6796;0;2;0;2258;0;0;0;0;3;0;1343;0;0;0;0;4;0;1811;0;0;0;0;5;0;4819;2;0;0;0;0;0;6;0;3613;2;0;0;0;0;0;7;0;2167;0;0;0;0;8;0;2191;0;0;0;0;9;0;1126;0;0;0;0
14.11.17;18:45:00;1;3463;6590;0;2;0;2258;0;0;0;0;3;0;1343;0;0;0;0;4;0;1811;0;0;0;0;5;0;4819;2;0;0;0;0;0;6;0;3613;2;0;0;0;0;0;7;0;2167;0;0;0;0;8;0;2191;0;0;0;0;9;0;1126;0;0;0;0
14.11.17;18:40:00;1;3805;6195;0;2;0;2258;0;0;0;0;3;0;1343;0;0;0;0;4;0;1811;0;0;0;0;5;0;4819;2;0;0;0;0;0;6;0;3613;2;0;0;0;0;0;7;0;2167;0;0;0;0;8;0;2191;0;0;0;0;9;0;1126;0;0;0;0
14.11.17;18:35:00;1;4553;5873;0;2;0;2258;0;0;0;0;3;0;1343;0;0;0;0;4;0;1811;0;0;0;0;5;0;4819;2;0;0;0;0;0;6;0;3613;2;0;0;0;0;0;7;0;2167;0;0;0;0;8;0;2191;0;0;0;0;9;0;1126;0;0;0;0
14.11.17;18:30:00;1;961;5529;0;2;0;2258;0;0;0;0;3;0;1343;0;0;0;0;4;0;1811;0;0;0;0;5;0;4819;2;0;0;0;0;0;6;0;3613;2;0;0;0;0;0;7;0;2167;0;0;0;0;8;0;2191;0;0;0;0;9;0;1126;0;0;0;0
14.11.17;18:25:00;1;490;5428;0;2;0;2258;0;0;0;0;3;0;1343;0;0;0;0;4;0;1811;0;0;0;0;5;0;4819;2;0;0;0;0;0;6;0;3613;2;0;0;0;0;0;7;0;2167;0;0;0;0;8;0;2191;0;0;0;0;9;0;1126;0;0;0;0
14.11.17;18:20:00;1;665;5381;0;2;0;2258;0;0;0;0;3;0;1343;0;0;0;0;4;0;1811;0;0;0;0;5;0;4819;2;0;0;0;0;0;6;0;3613;2;0;0;0;0;0;7;0;2167;0;0;0;0;8;0;2191;0;0;0;0;9;0;1126;0;0;0;0
14.11.17;18:15:00;1;640;5327;0;2;0;2258;0;0;0;0;3;0;1343;0;0;0;0;4;0;1811;0;0;0;0;5;0;4819;2;0;0;0;0;0;6;0;3613;2;0;0;0;0;0;7;0;2167;0;0;0;0;8;0;2191;0;0;0;0;9;0;1126;0;0;0;0
14.11.17;18:10:00;1;606;5271;0;2;0;2258;0;0;0;0;3;0;1343;0;0;0;0;4;0;1811;0;0;0;0;5;0;4819;2;0;0;0;0;0;6;0;3613;2;0;0;0;0;0;7;0;2167;0;0;0;0;8;0;2191;0;0;0;0;9;0;1126;0;0;0;0
14.11.17;18:05:00;1;1295;5219;0;2;0;2258;0;0;0;0;3;0;1343;0;0;0;0;4;0;1811;0;0;0;0;5;0;4819;2;0;0;0;0;0;6;0;3613;2;0;0;0;0;0;7;0;2167;0;0;0;0;8;0;2191;0;0;0;0;9;0;1126;0;0;0;0
14.11.17;18:00:00;1;617;5134;0;2;0;2258;0;0;0;0;3;0;1343;0;0;0;0;4;0;1811;0;0;0;0;5;0;4819;2;0;0;0;0;0;6;0;3613;2;0;0;0;0;0;7;0;2167;0;0;0;0;8;0;2191;0;0;0;0;9;0;1126;0;0;0;0
14.11.17;17:55:00;1;641;5083;0;2;0;2258;0;0;0;0;3;0;1343;0;0;0;0;4;0;1811;0;0;0;0;5;0;4819;2;0;0;0;0;0;6;0;3613;2;0;0;0;0;0;7;0;2167;0;0;0;0;8;0;2191;0;0;0;0;9;0;1126;0;0;0;0
14.11.17;17:50:00;1;934;5031;0;2;0;2258;0;0;0;0;3;0;1343;0;0;0;0;4;0;1811;0;0;0;0;5;0;4819;2;0;0;0;0;0;6;0;3613;2;0;0;0;0;0;7;0;2167;0;0;0;0;8;0;2191;0;0;0;0;9;0;1126;0;0;0;0
14.11.17;17:45:00;1;1451;4914;0;2;0;2258;0;0;0;0;3;0;1343;0;0;0;0;4;0;1811;0;0;0;0;5;0;4819;2;0;0;0;0;0;6;0;3613;2;0;0;0;0;0;7;0;2167;0;0;0;0;8;0;2191;0;0;0;0;9;0;1126;0;0;0;0
14.11.17;17:40:00;1;709;4813;0;2;0;2258;0;0;0;0;3;0;1343;0;0;0;0;4;0;1811;0;0;0;0;5;0;4819;2;0;0;0;0;0;6;0;3613;2;0;0;0;0;0;7;0;2167;0;0;0;0;8;0;2191;0;0;0;0;9;0;1126;0;0;0;0
14.11.17;17:35:00;1;716;4756;0;2;0;2258;0;0;0;0;3;0;1343;0;0;0;0;4;0;1811;0;0;0;0;5;0;4819;2;0;0;0;0;0;6;0;3613;2;0;0;0;0;0;7;0;2167;0;0;0;0;8;0;2191;0;0;0;0;9;0;1126;0;0;0;0
14.11.17;17:30:00;1;1390;4698;0;2;0;2258;0;0;0;0;3;0;1343;0;0;0;0;4;0;1811;0;0;0;0;5;0;4819;2;0;0;0;0;0;6;0;3613;2;0;0;0;0;0;7;0;2167;0;0;0;0;8;0;2191;0;0;0;0;9;0;1126;0;0;0;0
14.11.17;17:25:00;1;576;4603;0;2;0;2258;0;0;0;0;3;0;1343;0;0;0;0;4;0;1811;0;0;0;0;5;0;4819;2;0;0;0;0;0;6;0;3613;2;0;0;0;0;0;7;0;2167;0;0;0;0;8;0;2191;0;0;0;0;9;0;1126;0;0;0;0
14.11.17;17:20:00;1;1011;4538;0;2;0;2258;0;0;0;0;3;0;1343;0;0;0;0;4;0;1811;0;0;0;0;5;0;4819;2;0;0;0;0;0;6;0;3613;2;0;0;0;0;0;7;0;2167;0;0;0;0;8;0;2191;0;0;0;0;9;0;1126;0;0;0;0
14.11.17;17:15:00;1;2175;4447;0;2;0;2258;0;0;0;0;3;0;1343;0;0;0;0;4;0;1811;0;0;0;0;5;0;4819;2;0;0;0;0;0;6;0;3613;2;0;0;0;0;0;7;0;2167;0;0;0;0;8;0;2191;0;0;0;0;9;0;1126;0;0;0;0
14.11.17;17:10:00;1;2140;4266;0;2;0;2258;0;0;0;0;3;0;1343;0;0;0;0;4;0;1811;0;0;0;0;5;0;4819;2;0;0;0;0;0;6;0;3613;2;0;0;0;0;0;7;0;2167;0;0;0;0;8;0;2191;0;0;0;0;9;0;1126;0;0;0;0
14.11.17;17:05:00;1;2138;4086;0;2;0;2258;0;0;0;0;3;0;1343;0;0;0;0;4;0;1811;0;0;0;0;5;0;4819;2;0;0;0;0;0;6;0;3613;2;0;0;0;0;0;7;0;2167;0;0;0;0;8;0;2191;0;0;0;0;9;0;1126;0;0;0;0
14.11.17;17:00:00;1;742;3917;0;2;0;2258;0;0;0;0;3;0;1343;0;0;0;0;4;0;1811;0;0;0;0;5;0;4819;2;0;0;0;0;0;6;0;3613;2;0;0;0;0;0;7;0;2167;0;0;0;0;8;0;2191;0;0;0;0;9;0;1126;0;0;0;0
14.11.17;16:55:00;1;302;3869;0;2;0;2258;0;0;0;0;3;0;1343;0;0;0;0;4;0;1811;0;0;0;0;5;0;4819;2;0;0;0;0;0;6;0;3613;2;0;0;0;0;0;7;0;2167;0;0;0;0;8;0;2191;0;0;0;0;9;0;1126;0;0;0;0
14.11.17;16:50:00;1;314;3844;0;2;0;2258;0;0;147;5;3;0;1343;2;0;278;14;4;0;1811;0;0;0;0;5;0;4819;2;0;0;0;0;0;6;0;3613;2;0;0;0;0;0;7;0;2167;0;0;0;0;8;0;2191;0;0;0;0;9;0;1126;0;0;0;0
14.11.17;16:45:00;1;270;3818;0;2;0;2258;6;0;288;10;3;0;1343;6;0;316;14;4;0;1811;0;0;60;7;5;0;4819;2;0;0;0;0;0;6;0;3613;2;0;0;0;0;0;7;0;2167;0;0;0;0;8;0;2191;0;0;0;0;9;0;1126;0;0;0;0
14.11.17;16:40:00;1;201;3795;0;2;0;2258;6;0;323;11;3;0;1343;6;0;378;14;4;0;1811;1;0;102;9;5;0;4819;0;8;0;176;166;20;6;0;3613;2;0;0;0;0;0;7;0;2167;0;0;0;0;8;0;2191;0;0;0;0;9;0;1126;0;0;74;2
14.11.17;16:35:00;1;252;3778;0;2;0;2258;6;0;338;11;3;0;1343;6;0;415;14;4;0;1811;1;0;117;9;5;0;4819;23;8;0;204;197;21;6;0;3613;23;8;1;179;347;20;7;0;2167;0;0;0;0;8;0;2191;0;0;83;4;9;0;1126;6;0;268;9
14.11.17;16:30:00;1;253;3757;0;2;0;2258;6;0;353;11;3;0;1343;6;1;425;14;4;0;1811;1;0;133;9;5;0;4819;23;10;0;274;332;22;6;0;3613;23;8;1;180;487;20;7;0;2167;6;0;268;14;8;0;2191;6;0;273;14;9;0;1126;6;0;294;9
14.11.17;16:25:00;1;254;3736;0;2;0;2258;6;0;379;11;3;0;1343;6;0;468;14;4;0;1811;1;0;175;9;5;0;4819;1;8;0;366;425;22;6;0;3613;23;9;0;181;548;20;7;0;2167;6;0;337;14;8;0;2191;6;0;344;14;9;0;1126;6;0;363;10
14.11.17;16:20:00;1;254;3715;0;2;0;2258;6;0;399;11;3;1;1343;3;5;465;14;4;0;1811;1;0;214;10;5;0;4819;8;10;0;412;577;23;6;0;3613;23;14;0;209;579;21;7;0;2167;6;0;388;15;8;0;2191;6;0;398;14;9;0;1126;6;0;430;10
14.11.17;16:15:00;1;255;3694;0;2;0;2258;6;0;409;11;3;4;1343;6;9;463;14;4;0;1811;3;0;205;10;5;57;4819;4;56;0;334;535;24;6;0;3613;23;5;1;353;588;21;7;0;2167;6;1;420;15;8;0;2191;6;2;424;14;9;0;1126;6;0;459;10
14.11.17;16:10:00;1;256;3672;0;2;3;2258;6;10;396;12;3;0;1343;6;4;508;14;4;0;1811;3;0;213;10;5;75;4814;4;93;0;334;535;24;6;40;3613;1;24;31;487;458;22;7;0;2167;6;1;443;15;8;0;2191;6;1;448;14;9;0;1126;6;0;504;10
14.11.17;16:05:00;1;256;3651;0;2;3;2258;6;8;412;12;3;1;1343;6;6;513;14;4;0;1811;3;0;217;10;5;88;4807;4;103;0;333;535;24;6;70;3609;4;44;50;462;432;23;7;5;2167;6;6;433;15;8;2;2191;6;2;451;15;9;2;1126;3;6;474;10
14.11.17;16:00:00;1;282;3629;0;2;5;2257;6;10;421;12;3;1;1343;6;6;528;15;4;7;1811;3;7;200;11;5;124;4800;4;136;0;334;535;24;6;91;3603;4;36;38;462;432;23;7;0;2166;6;4;480;15;8;0;2191;6;4;481;15;9;1;1126;6;4;529;10
14.11.17;15:55:00;1;263;3606;0;2;48;2257;4;73;363;12;3;0;1342;6;0;558;15;4;12;1810;3;12;199;11;5;137;4789;4;161;0;334;535;24;6;100;3596;4;36;39;462;432;23;7;0;2166;6;0;501;16;8;0;2191;6;0;512;15;9;6;1126;6;12;502;10
14.11.17;15:50:00;1;232;3583;0;2;60;2253;4;86;366;13;3;8;1342;3;21;517;15;4;11;1809;3;12;198;11;5;158;4777;4;188;1;336;535;24;6;113;3587;4;44;49;462;432;23;7;44;2166;4;78;398;16;8;46;2191;4;77;400;15;9;4;1126;6;7;552;10
14.11.17;15:45:00;1;198;3564;0;2;76;2248;4;104;374;13;3;9;1342;6;14;541;15;4;40;1808;3;42;198;11;5;200;4764;4;227;11;394;535;24;6;136;3577;4;60;65;462;432;23;7;51;2163;4;88;435;16;8;53;2187;4;90;438;15;9;6;1125;6;10;551;10
14.11.17;15:40:00;1;189;3547;0;2;90;2242;4;116;363;13;3;8;1341;6;13;549;15;4;44;1805;3;46;198;11;5;220;4747;4;186;14;403;535;24;6;150;3566;4;86;85;462;432;23;7;62;2158;4;96;416;16;8;65;2182;4;97;427;15;9;0;1125;6;0;583;10
14.11.17;15:35:00;1;188;3531;0;2;103;2234;4;131;363;13;3;34;1340;6;54;505;15;4;54;1801;3;56;198;11;5;256;4729;4;277;34;406;535;24;6;168;3553;4;118;114;462;432;23;7;82;2153;4;114;429;16;8;87;2177;4;113;409;15;9;18;1125;3;26;526;11
14.11.17;15:30:00;1;188;3516;0;2;116;2226;4;144;369;13;3;62;1338;4;100;488;16;4;75;1797;3;78;199;11;5;273;4708;4;221;38;404;535;24;6;180;3539;4;74;71;462;432;23;7;96;2147;4;133;451;16;8;104;2170;4;134;400;15;9;9;1123;6;12;567;11
14.11.17;15:25:00;1;188;3500;0;2;115;2216;4;142;368;13;3;62;1332;4;100;487;16;4;68;1791;3;71;198;11;5;261;4685;4;275;39;402;535;24;6;172;3524;4;95;91;462;432;23;7;104;2139;4;133;406;16;8;107;2161;4;136;409;15;9;8;1122;6;12;559;11
14.11.17;15:20:00;1;188;3484;0;2;121;2206;4;148;371;13;3;67;1327;4;103;475;16;4;70;1785;3;72;198;11;5;275;4664;4;199;34;408;535;24;6;183;3509;4;95;93;462;432;23;7;102;2130;4;138;419;16;8;110;2152;4;141;422;15;9;8;1122;6;13;569;11
14.11.17;15:15:00;1;189;3468;0;2;139;2196;4;169;376;13;3;79;1322;4;115;486;16;4;87;1779;3;91;200;11;5;310;4641;4;292;61;408;535;24;6;204;3493;4;89;89;462;432;22;7;97;2121;4;146;435;16;8;115;2143;4;148;447;15;9;12;1121;6;16;565;11
14.11.17;15:10:00;1;189;3452;0;2;142;2185;4;171;387;13;3;78;1315;4;116;488;16;4;92;1772;3;96;214;11;5;320;4615;4;240;54;409;535;24;6;212;3476;4;95;97;462;432;22;7;113;2113;4;152;411;16;8;115;2134;4;154;455;15;9;10;1120;6;14;571;11
14.11.17;15:05:00;1;232;3436;0;2;148;2173;4;177;381;13;3;77;1309;4;117;518;16;4;99;1764;5;103;210;11;5;315;4588;4;239;52;409;535;24;6;212;3458;4;112;105;462;432;22;7;131;2104;4;161;448;16;8;123;2124;4;157;474;15;9;44;1119;4;56;512;11
14.11.17;15:00:00;1;231;3417;0;2;131;2160;4;160;385;13;3;73;1302;4;114;501;16;4;80;1756;3;83;199;11;5;289;4562;4;314;57;407;535;24;6;193;3440;4;109;105;462;432;22;7;107;2093;4;146;434;16;8;111;2114;4;146;441;15;9;10;1115;6;14;570;11
14.11.17;14:55:00;1;252;3398;0;2;137;2150;4;165;386;13;3;74;1296;4;115;509;16;4;82;1749;3;85;199;11;5;303;4538;4;226;42;404;535;24;6;201;3424;4;98;97;462;432;22;7;112;2084;4;157;467;16;8;126;2104;4;161;465;15;9;42;1115;6;57;514;11
14.11.17;14:50:00;1;188;3379;0;2;137;2138;4;166;388;13;3;79;1290;4;115;486;16;4;96;1742;3;100;211;11;5;312;4513;4;260;58;408;535;24;6;213;3407;4;106;109;462;432;22;7;116;2074;4;152;442;16;8;116;2094;4;153;438;15;9;10;1112;6;14;571;12
14.11.17;14:45:00;1;188;3363;0;2;168;2127;4;196;383;13;3;97;1283;4;136;492;16;4;126;1734;5;131;225;11;5;372;4487;4;284;83;413;535;24;6;258;3389;4;139;137;462;432;22;7;139;2065;4;172;402;16;8;145;2084;4;177;390;16;9;62;1111;6;85;524;12
14.11.17;14:40:00;1;189;3347;0;2;182;2113;4;211;386;13;3;107;1275;4;143;500;16;4;129;1724;5;134;223;11;5;386;4456;4;292;84;407;535;24;6;262;3368;4;131;132;462;432;22;7;157;2053;4;188;411;16;8;159;2073;4;191;420;16;9;86;1107;4;109;471;12
14.11.17;14:35:00;1;186;3332;0;2;176;2097;4;205;383;13;3;96;1266;4;137;518;16;4;138;1713;5;144;232;11;5;381;4423;4;317;91;410;535;24;6;254;3346;4;117;115;462;432;22;7;170;2040;4;206;442;16;8;174;2059;4;211;451;16;9;95;1100;4;118;490;12
14.11.17;14:30:00;1;186;3316;0;2;185;2083;4;215;377;14;3;109;1258;4;146;507;16;4;139;1702;5;145;229;11;5;397;4392;4;304;91;409;535;24;6;266;3325;4;140;136;462;432;22;7;192;2026;4;226;468;16;8;201;2045;4;239;448;16;9;108;1092;4;134;490;12
14.11.17;14:25:00;1;186;3300;0;2;193;2067;4;224;385;14;3;116;1249;4;154;495;16;4;138;1690;5;144;231;11;5;408;4359;4;299;92;411;535;24;6;279;3302;4;152;148;462;441;22;7;184;2010;4;230;453;16;8;195;2028;4;228;479;16;9;109;1083;4;136;502;12
14.11.17;14:20:00;1;194;3285;0;2;207;2051;4;237;385;14;3;122;1239;4;160;492;16;4;162;1679;5;169;229;11;5;443;4324;4;287;91;417;535;24;6;362;3278;4;165;174;568;557;22;7;186;1995;4;217;406;16;8;187;2012;4;224;428;16;9;103;1074;4;129;498;12
14.11.17;14:15:00;1;228;3268;0;2;243;2034;4;275;390;14;3;144;1229;4;183;513;16;4;190;1665;5;198;231;11;5;498;4287;4;387;132;417;535;24;6;399;3248;4;194;201;581;562;22;7;216;1980;4;255;443;16;8;214;1996;4;255;444;16;9;120;1065;4;145;511;12
14.11.17;14:10:00;1;284;3249;0;2;269;2014;4;300;393;14;3;161;1217;4;201;508;16;4;215;1649;5;224;235;11;5;547;4245;4;414;152;414;535;24;6;447;3214;4;214;221;575;564;22;7;258;1961;4;302;463;16;8;260;1978;4;305;470;16;9;142;1055;4;169;521;12
14.11.17;14:05:00;1;283;3225;0;2;296;1991;4;330;396;14;3;179;1204;4;220;511;16;4;243;1631;5;253;236;11;5;591;4200;4;392;158;421;535;23;6;489;3177;4;256;264;583;568;22;7;282;1940;4;319;477;16;8;287;1957;4;323;473;16;9;157;1043;4;184;505;12
14.11.17;14:00:00;1;253;3202;0;2;290;1967;4;320;393;14;3;173;1189;4;211;523;16;4;237;1611;5;246;234;11;5;619;4150;4;442;194;422;602;23;6;476;3136;4;239;237;589;569;22;7;303;1916;4;338;476;16;8;304;1933;4;346;469;16;9;166;1030;4;196;518;12
14.11.17;13:55:00;1;254;3181;0;2;310;1942;4;344;396;14;3;189;1174;4;228;520;16;4;256;1591;5;266;239;11;5;674;4098;4;513;239;421;628;23;6;511;3096;4;280;284;578;565;22;7;331;1891;4;377;471;16;8;340;1907;4;380;483;16;9;183;1016;4;213;520;12
14.11.17;13:50:00;1;255;3159;0;2;326;1917;4;363;400;14;3;199;1158;4;237;521;16;4;264;1570;5;275;237;11;5;688;4043;4;484;227;421;633;23;6;523;3054;4;272;273;582;571;22;7;337;1863;4;370;478;16;8;328;1879;4;368;483;16;9;184;1001;4;211;521;12
14.11.17;13:45:00;1;255;3138;0;2;347;1890;4;384;404;14;3;214;1142;4;255;517;16;4;289;1548;5;301;238;11;5;757;3985;4;523;253;421;634;23;6;568;3010;4;285;292;589;567;22;7;372;1835;4;405;470;16;8;369;1852;4;410;484;16;9;197;986;4;228;535;12
14.11.17;13:40:00;1;256;3117;0;2;358;1861;4;395;401;14;3;220;1124;4;262;508;16;4;304;1524;5;317;237;11;5;788;3922;4;522;264;424;635;23;6;605;2962;4;302;309;590;575;22;7;382;1804;4;413;463;16;8;378;1821;4;419;471;16;9;206;969;4;236;523;12
14.11.17;13:35:00;1;254;3095;0;2;389;1831;4;424;406;14;3;239;1106;4;280;507;16;4;328;1499;5;341;240;11;5;834;3856;4;533;279;422;654;23;6;626;2912;4;327;332;589;572;22;7;423;1773;4;464;470;16;8;428;1790;4;467;478;16;9;227;952;4;262;518;12